Location: Newark
(56.0692°N, 115.8617°E)
Time: 12:43:54
(UTC+00:00)

Vanguard 2 Rocket - Pass Details

Date: 29 May 2020
Orbit: 556 x 3325 km, 32.9° (Epoch: 14 July)

Event Time Altitude Azimuth Distance (km) Brightness Sun altitude
Rises 06:55:01 0° 194° (SSW) 4,239 10.8 44.6°
Reaches altitude 10° 06:59:39 10° 169° (S) 3,805 10.4 44.1°
Maximum altitude 07:04:02 14° 143° (SE) 4,001 10.3 43.6°
Drops below altitude 10° 07:09:21 10° 119° (ESE) 4,827 10.4 42.9°
Sets 07:17:04 0° 99° (E) 6,492 10.9 42.0°
